Somerville, NJ

6:20 AM EDT on July 26, 2017 (GMT -0400)
Somerset

Weather History for KSMQ - June, 2012

Change the Weather History Date:

Thursday, June 21, 2012

  Actual Average Record
Temperature  
Mean Temperature 82 °F -  
Max Temperature 96 °F 81 °F 96 °F (1949)
Min Temperature 69 °F 58 °F 42 °F (1940)
Cooling Degree Days 17    
Growing Degree Days 32 (Base 50)    
Moisture  
Dew Point 69 °F    
Average Humidity 74    
Maximum Humidity 100    
Minimum Humidity 37    
Precipitation  
Precipitation 0.00 in - - ()
Sea Level Pressure  
Sea Level Pressure 29.88 in    
Wind  
Wind Speed 1 mph (NW)    
Max Wind Speed 8 mph    
Max Gust Speed -    
Visibility 6 miles    
Events Fog    
Averages and records for this station are not official NWS values.
T = Trace of Precipitation, MM = Missing Value Source: NWS Daily Summary

Daily Weather History Graph

Daily Weather History Graph

Search for Another Location

Airport or City:

Trip Planner

Search our weather history database for the weather conditions in past years. The results will help you decide how hot, cold, wet, or windy it might be!

Date:

Astronomy

Jun. 21, 2012 Rise Set
Actual Time 5:28 AM EDT 8:33 PM EDT
Civil Twilight 4:54 AM EDT 9:06 PM EDT
Nautical Twilight 4:12 AM EDT 9:49 PM EDT
Astronomical Twilight 3:21 AM EDT 10:39 PM EDT
Moon 7:24 AM EDT (6/21) 9:54 PM EDT (6/21)
Length of Visible Light 16h 11m
Length of Day
15h 05m
Waxing Crescent, 4% of the Moon is Illuminated
Jun 21
Waxing Crescent
Jun 26
First Quarter
Jul 3
Full
Jul 10
Last Quarter
Jul 19
New

Hourly Weather History & Observations

Time (EDT) Temp. Heat Index Dew Point Humidity Pressure Visibility Wind Dir Wind Speed Gust Speed Precip Events Conditions
12:53 AM 73.0 °F - 71.1 °F 93% 29.94 in 6.0 mi Calm Calm - N/A   Clear
1:53 AM 71.1 °F - 70.0 °F 96% 29.93 in 4.0 mi Calm Calm - N/A   Clear
2:15 AM 71.6 °F - 69.8 °F 94% 29.93 in 2.0 mi Calm Calm - N/A   Clear
2:22 AM 71.6 °F - 69.8 °F 94% 29.92 in 1.0 mi Calm Calm - N/A   Clear
2:29 AM 71.6 °F - 69.8 °F 94% 29.92 in 0.5 mi Calm Calm - N/A Fog Fog
2:36 AM 71.6 °F - 69.8 °F 94% 29.92 in 2.0 mi Calm Calm - N/A   Clear
2:43 AM 71.6 °F - 69.8 °F 94% 29.92 in 6.0 mi Calm Calm - N/A   Clear
2:53 AM 71.1 °F - 70.0 °F 96% 29.92 in 4.0 mi Calm Calm - N/A   Clear
3:53 AM 71.1 °F - 69.1 °F 93% 29.92 in 6.0 mi Calm Calm - N/A   Clear
4:24 AM 69.8 °F - 68.0 °F 94% 29.92 in 1.2 mi Calm Calm - N/A   Partly Cloudy
4:26 AM 69.8 °F - 68.0 °F 94% 29.92 in 0.8 mi Calm Calm - N/A   Mist
4:40 AM 69.8 °F - 68.0 °F 94% 29.92 in 1.0 mi Calm Calm - N/A   Clear
4:47 AM 69.8 °F - 69.8 °F 100% 29.93 in 3.0 mi Calm Calm - N/A   Clear
4:53 AM 70.0 °F - 68.0 °F 93% 29.92 in 6.0 mi Calm Calm - N/A   Clear
5:53 AM 69.1 °F - 68.0 °F 96% 29.93 in 4.0 mi Calm Calm - N/A   Clear
6:53 AM 72.0 °F - 70.0 °F 93% 29.94 in 6.0 mi Calm Calm - N/A   Clear
7:53 AM 81.0 °F 85.2 °F 72.0 °F 74% 29.95 in 8.0 mi NW 3.5 mph - N/A   Clear
8:53 AM 84.0 °F 88.4 °F 70.0 °F 63% 29.94 in 8.0 mi Variable 4.6 mph - N/A   Clear
9:53 AM 86.0 °F 90.7 °F 70.0 °F 59% 29.93 in 8.0 mi Calm Calm - N/A   Clear
10:53 AM 90.0 °F 95.4 °F 70.0 °F 52% 29.91 in 9.0 mi NW 4.6 mph - N/A   Clear
11:53 AM 93.2 °F 96.2 °F 66.2 °F 41% 29.89 in 10.0 mi NW 6.9 mph - N/A   Clear
12:53 PM 93.9 °F 97.0 °F 66.0 °F 40% 29.88 in 10.0 mi North 8.1 mph - N/A   Clear
1:53 PM 93.9 °F 100.3 °F 70.0 °F 46% 29.85 in 9.0 mi WNW 4.6 mph - N/A   Clear
2:53 PM 93.9 °F 97.5 °F 66.9 °F 41% 29.83 in 10.0 mi Variable 4.6 mph - N/A   Clear
3:53 PM 95.0 °F 97.4 °F 64.9 °F 37% 29.80 in 10.0 mi Variable 5.8 mph - N/A   Clear
4:53 PM 95.0 °F 97.4 °F 64.9 °F 37% 29.79 in 10.0 mi Variable 5.8 mph - N/A   Clear
5:53 PM 93.0 °F 94.6 °F 64.0 °F 38% 29.78 in 10.0 mi Variable 4.6 mph - N/A   Clear
6:53 PM 91.0 °F 94.3 °F 66.9 °F 45% 29.77 in 10.0 mi Variable 3.5 mph - N/A   Clear
7:53 PM 89.1 °F 92.1 °F 66.9 °F 48% 29.78 in 9.0 mi Calm Calm - N/A   Clear
8:53 PM 81.0 °F 83.8 °F 68.0 °F 65% 29.78 in 9.0 mi Calm Calm - N/A   Clear
9:53 PM 80.1 °F 82.9 °F 69.1 °F 69% 29.79 in 9.0 mi Calm Calm - N/A   Clear
10:53 PM 75.0 °F - 71.1 °F 87% 29.80 in 7.0 mi Calm Calm - N/A   Clear
11:53 PM 73.0 °F - 71.1 °F 93% 29.79 in 5.0 mi Calm Calm - N/A   Clear